Date,TemperatureHighF,TemperatureAvgF,TemperatureLowF,DewpointHighF,DewpointAvgF,DewpointLowF,HumidityHigh,HumidityAvg,HumidityLow,PressureMaxIn,PressureMinIn,WindSpeedMaxMPH,WindSpeedAvgMPH,GustSpeedMaxMPH,PrecipitationSumIn
2013-2-1,27.5,17.2,4.1,24.3,15.8,4.1,100,95,85,29.91,29.62,12,3,12,0.00
2013-2-2,48.7,35.9,24.3,41.8,32.4,21.8,97,87,73,29.68,29.53,10,3,10,0.00
2013-2-3,50.5,37.8,31.8,41.9,34.1,27.8,97,87,73,29.77,29.35,14,5,14,0.00
2013-2-4,51.4,39.3,22.3,43.1,34.9,22.1,100,85,73,29.53,29.29,13,4,13,0.00
2013-2-5,59.5,39.4,21.4,46.2,34.6,21.4,100,85,61,29.65,29.44,15,3,15,0.00
2013-2-6,62.1,46.4,30.7,48.3,39.4,28.0,97,78,61,29.68,29.47,17,6,17,0.00
2013-2-7,49.8,45.4,43.7,45.9,43.4,38.5,100,94,73,29.50,29.44,12,5,12,0.00
2013-2-11,51.6,37.7,27.3,43.3,33.0,23.8,100,83,73,29.80,29.56,11,3,11,0.00
2013-2-12,42.3,37.3,25.3,37.9,33.8,25.3,100,87,79,29.80,29.62,6,0,6,0.00
2013-2-13,57.4,40.7,26.6,46.2,35.8,25.5,100,84,61,29.62,29.47,13,4,13,0.00
2013-2-14,38.1,35.8,34.0,35.7,33.2,28.0,97,90,79,29.53,29.50,6,3,6,0.00
2013-2-16,32.9,32.5,32.5,28.9,28.5,28.4,85,85,85,29.80,29.77,8,5,8,0.00
2013-2-17,32.9,32.8,32.7,28.9,28.8,28.7,85,85,85,29.77,29.77,9,5,9,0.00
2013-2-19,36.9,27.0,20.1,34.7,24.3,19.4,97,90,79,30.00,29.77,19,5,19,0.00
2013-2-20,23.5,23.0,22.1,22.3,21.5,21.0,97,94,91,29.91,29.88,11,6,11,0.00
2013-2-21,28.6,25.0,21.2,28.6,24.3,21.0,100,97,91,29.91,29.44,17,5,17,0.00
2013-2-22,35.1,24.1,14.2,29.7,22.7,14.0,100,94,79,29.80,29.47,13,2,13,0.00
2013-2-23,33.1,19.3,9.1,28.4,18.0,9.1,100,95,85,29.77,29.65,8,1,8,0.00
2013-2-24,56.1,40.0,31.1,45.3,34.8,27.1,91,82,67,29.74,29.65,10,4,10,0.00
2013-2-25,38.3,33.9,27.0,35.9,31.1,23.6,100,90,79,29.68,29.32,20,6,20,0.00
2013-2-26,34.5,32.8,31.6,34.5,32.8,31.6,100,100,97,29.53,29.18,15,2,15,0.00
2013-2-27,36.5,31.8,27.0,34.7,30.7,25.5,100,96,79,29.71,29.50,17,2,17,0.00
2013-2-28,37.4,31.5,27.3,35.0,27.9,23.4,100,87,79,29.85,29.71,16,5,16,0.00